[[{"header":{"parameterUnit":"m.s-1","parameterCategory":1,"la1":30.2991,"la2":30.254,"lo1":-89.0895,"lo2":-89.0444,"dy":0.0017,"dx":0.0017,"nx":28,"ny":28,"refTime":"2024-05-15T03:00:00:Z","depth":0,"parameterNumber":2,"parameterNumberName":"U-component_of_WINDS"},"data":[0,0,0,0,0,0,0,0,0,0,0,0,0,0,0,0,0,0,0,0,0,0,0,0,0,0,0,0,0,0,0,0,0,0,0,0,0,0,0,0,0,0,0,0,0,0,0,0,0,0,0,0,0,0,0,0,0,0,-2.1861,-2.186,0,-2.1763,-2.1762,-2.176,-2.1683,-2.1682,-2.1681,-2.168,-2.1577,-2.1575,-2.1573,0,0,0,0,0,0,0,0,0,0,0,0,0,-2.1981,-2.198,-2.1861,-2.186,-2.1859,-2.1763,-2.1762,-2.176,-2.1683,-2.1682,-2.1681,-2.168,-2.1578,-2.1575,-2.1573,0,0,0,0,0,0,0,0,0,0,0,0,0,-2.1911,-2.1979,-2.1862,-2.1809,-2.1803,-2.1763,-2.1762,-2.176,-2.1683,-2.1682,-2.1681,-2.168,-2.1579,-2.1576,-2.1573,-2.1577,0,0,-2.1563,-2.1562,0,0,0,0,0,0,0,0,-2.1915,-2.1906,-2.1818,-2.1812,-2.1806,-2.1734,-2.1766,-2.1698,-2.1683,-2.1728,-2.168,-2.1679,-2.163,-2.1623,-2.1607,-2.1572,-2.1567,-2.1563,-2.1561,-2.156,-2.1559,0,0,0,0,0,0,0,-2.192,-2.191,-2.1822,-2.1817,-2.1809,-2.179,-2.1778,-2.1753,-2.1687,-2.1724,-2.1719,-2.1708,-2.1627,-2.161,-2.1604,-2.1566,-2.1563,-2.156,-2.1558,-2.1557,-2.153,-2.1531,0,0,0,0,0,0,-2.1933,-2.1915,-2.1825,-2.1819,-2.1859,-2.1788,-2.1776,-2.1758,-2.1687,-2.1675,-2.1709,-2.1705,-2.1616,-2.1607,-2.16,-2.16,-2.156,-2.1557,-2.1555,-2.1529,-2.153,-2.1532,0,0,0,0,0,0,-2.1936,-2.1926,-2.1829,-2.1865,-2.1852,-2.1788,-2.1768,-2.1757,-2.174,-2.1675,-2.1663,-2.1704,-2.1614,-2.1604,-2.1583,-2.1595,-2.1556,-2.1553,-2.1528,-2.1529,-2.1531,-2.16,0,0,0,0,0,0,-2.194,-2.1927,-2.1928,-2.1866,-2.185,-2.1815,-2.1769,-2.1756,-2.1735,-2.1728,-2.1667,-2.1656,-2.1613,-2.1588,-2.158,-2.159,-2.155,-2.1526,-2.1528,-2.153,-2.1597,-2.1604,-2.1611,0,0,0,0,0,-2.1944,-2.1951,-2.1929,-2.1918,-2.185,-2.1816,-2.1807,-2.1757,-2.1736,-2.1737,-2.1696,-2.1658,-2.1596,-2.1587,-2.1577,-2.1586,-2.1525,-2.1528,-2.153,-2.1593,-2.1603,-2.161,0,0,0,0,0,0,-2.2015,-2.1942,-2.1916,-2.1903,-2.1867,-2.1803,-2.1801,-2.1768,-2.1736,-2.1731,-2.167,-2.1657,-2.1643,-2.1613,-2.1604,-2.1587,-2.1556,-2.1556,-2.1607,-2.1615,-2.1622,-2.1629,-2.1548,0,0,0,0,0,-2.2029,-2.2008,-2.1945,-2.194,-2.1923,-2.1866,-2.1849,-2.1814,-2.1773,-2.1757,-2.1714,-2.1676,-2.1647,-2.163,-2.16,-2.1593,-2.1578,-2.1594,-2.1601,-2.1607,-2.1608,-2.1603,-2.1609,-2.154,-2.154,-2.154,0,0,-2.2058,-2.2015,-2.2005,-2.1953,-2.192,-2.19,-2.1853,-2.1833,-2.1817,-2.1754,-2.1732,-2.17,-2.1652,-2.1639,-2.163,-2.1613,-2.1625,-2.1611,-2.1616,-2.1613,-2.1606,-2.1613,-2.1618,-2.1542,-2.1541,-2.1541,0,0,-2.2099,-2.2066,-2.2057,-2.2026,-2.1978,-2.1941,-2.1939,-2.1881,-2.1857,-2.1835,-2.1788,-2.1768,-2.172,-2.1689,-2.1666,-2.1699,-2.1663,-2.1691,-2.1727,-2.1722,-2.1728,-2.1732,-2.1744,-2.1749,-2.1693,-2.1693,-2.1693,0,-2.2141,-2.2108,-2.2057,-2.204,-2.2019,-2.1963,-2.1954,-2.1926,-2.1871,-2.1857,-2.1839,-2.1779,-2.1743,-2.1721,-2.173,-2.1714,-2.171,-2.1697,-2.1731,-2.1735,-2.1739,-2.1749,-2.1753,-2.1696,-2.1696,-2.1696,-2.1695,0,-2.2162,-2.214,-2.2139,-2.2088,-2.2067,-2.2054,-2.2001,-2.1986,-2.1954,-2.1918,-2.1896,-2.1852,-2.1813,-2.1805,-2.1773,-2.178,-2.177,-2.1743,-2.171,-2.175,-2.1758,-2.1762,-2.1702,-2.17,-2.1699,-2.1698,0,0,-2.2242,-2.2166,-2.2166,-2.2143,-2.2087,-2.2069,-2.2054,-2.2017,-2.2005,-2.1969,-2.1955,-2.1918,-2.1892,-2.1867,-2.1831,-2.1828,-2.1856,-2.18,-2.1798,-2.1812,-2.1861,-2.1882,-2.1887,-2.1833,-2.1834,-2.1834,-2.1865,0,-2.2275,-2.2246,-2.22,-2.2186,-2.2165,-2.2113,-2.21,-2.2065,-2.2032,-2.201,-2.1973,-2.1947,-2.1915,-2.19,-2.1894,-2.1854,-2.1865,-2.1852,-2.1819,-2.1819,-2.1832,-2.1891,-2.1913,-2.1943,-2.1868,-2.1868,-2.1869,0,-2.2308,-2.2277,-2.2261,-2.2208,-2.2197,-2.2187,-2.215,-2.2129,-2.2088,-2.2064,-2.2038,-2.2,-2.1982,-2.1953,-2.1927,-2.1919,-2.1903,-2.1882,-2.1882,-2.1876,-2.1845,-2.1886,-2.1952,-2.1957,-2.1874,-2.1873,-2.1873,0,-2.2368,-2.2322,-2.2307,-2.2289,-2.2227,-2.222,-2.2194,-2.2152,-2.2133,-2.2101,-2.2088,-2.2054,-2.2035,-2.201,-2.1963,-2.1947,-2.1943,-2.191,-2.1922,-2.1923,-2.1922,-2.1923,-2.1986,-2.1914,-2.1914,-2.1914,-2.1914,0,-2.2408,-2.2401,-2.2333,-2.2324,-2.2314,-2.2262,-2.2254,-2.2223,-2.2186,-2.217,-2.2122,-2.2108,-2.2048,-2.2026,-2.199,-2.1975,-2.1966,-2.1946,-2.1937,-2.195,-2.1953,-2.1938,-2.1934,-2.1915,-2.1915,-2.1915,-2.1914,0,-2.2473,-2.2428,-2.2408,-2.2352,-2.2338,-2.2333,-2.2284,-2.2273,-2.2238,-2.2218,-2.221,-2.2156,-2.2128,-2.208,-2.2038,-2.2014,-2.2005,-2.1989,-2.2019,-2.2013,-2.2028,-2.2027,-2.2082,-2.2087,-2.2014,-2.2015,-2.2015,0,-2.2502,-2.2495,-2.2438,-2.2424,-2.24,-2.2378,-2.2359,-2.2309,-2.2291,-2.2245,-2.2239,-2.2208,-2.2181,-2.2139,-2.2095,-2.2063,-2.2046,-2.2068,-2.204,-2.2055,-2.2045,-2.2046,-2.2045,-2.2073,-2.2074,-2.2075,-2.2076,0,-2.2556,-2.2535,-2.2509,-2.2477,-2.2456,-2.2428,-2.2397,-2.2388,-2.2331,-2.2313,-2.2285,-2.2264,-2.2222,-2.2192,-2.2155,-2.2127,-2.2092,-2.2085,-2.2086,-2.2099,-2.2117,-2.2107,-2.2035,-2.2084,-2.2083,-2.2082,-2.2082,-2.2082,-2.2603,-2.2595,-2.2554,-2.2528,-2.25,-2.2473,-2.246,-2.2425,-2.2401,-2.2363,-2.2335,-2.2309,-2.2269,-2.2216,-2.219,-2.2169,-2.2153,-2.2154,-2.2155,-2.2156,-2.2161,-2.2122,-2.2162,-2.2162,-2.2162,-2.2161,-2.2161,0,-2.2655,-2.2627,-2.2604,-2.2563,-2.2542,-2.2513,-2.2478,-2.2463,-2.2441,-2.2407,-2.2382,-2.235,-2.2321,-2.2276,-2.2244,-2.2235,-2.2219,-2.2229,-2.2228,-2.2222,-2.2177,-2.218,-2.2243,-2.2243,-2.2243,-2.2243,-2.2243,-2.2243,-2.268,-2.2664,-2.2638,-2.2609,-2.2581,-2.2556,-2.2538,-2.2513,-2.2486,-2.2453,-2.2429,-2.2401,-2.2362,-2.2327,-2.2299,-2.2287,-2.2277,-2.2292,-2.2274,-2.2233,-2.2225,-2.2218,-2.222,-2.229,-2.229,-2.2321,-2.2321,-2.2321]},{"header":{"parameterUnit":"m.s-1","parameterCategory":1,"la1":30.2991,"la2":30.254,"lo1":-89.0895,"lo2":-89.0444,"dy":0.0017,"dx":0.0017,"nx":28,"ny":28,"refTime":"2024-05-15T03:00:00:Z","depth":0,"parameterNumber":3,"parameterNumberName":"V-component_of_WINDS"},"data":[0,0,0,0,0,0,0,0,0,0,0,0,0,0,0,0,0,0,0,0,0,0,0,0,0,0,0,0,0,0,0,0,0,0,0,0,0,0,0,0,0,0,0,0,0,0,0,0,0,0,0,0,0,0,0,0,0,0,2.3789,2.3789,0,2.3759,2.3759,2.3759,2.379,2.3791,2.3792,2.3793,2.376,2.3758,2.3756,0,0,0,0,0,0,0,0,0,0,0,0,0,2.3872,2.3871,2.3789,2.3789,2.3789,2.3759,2.3759,2.3759,2.379,2.3791,2.3793,2.3794,2.376,2.3758,2.3755,0,0,0,0,0,0,0,0,0,0,0,0,0,2.3839,2.387,2.3789,2.3801,2.3801,2.3759,2.3759,2.3758,2.3789,2.3791,2.3793,2.3795,2.3761,2.3758,2.3755,2.37,0,0,2.3746,2.3744,0,0,0,0,0,0,0,0,2.384,2.3835,2.3799,2.38,2.3801,2.378,2.3776,2.3739,2.3789,2.3794,2.3793,2.3796,2.3765,2.3762,2.3752,2.3698,2.3697,2.3745,2.3744,2.3742,2.3741,0,0,0,0,0,0,0,2.3843,2.3837,2.3777,2.3799,2.38,2.3807,2.3804,2.3769,2.3769,2.3793,2.3796,2.3792,2.3765,2.3755,2.3751,2.3696,2.3746,2.3743,2.3741,2.374,2.3597,2.3595,0,0,0,0,0,0,2.3844,2.3839,2.3778,2.3777,2.3826,2.3804,2.3801,2.3785,2.377,2.3769,2.379,2.3793,2.3759,2.3755,2.375,2.3685,2.3742,2.3739,2.3738,2.3599,2.3597,2.3595,0,0,0,0,0,0,2.3846,2.3838,2.378,2.3808,2.3801,2.38,2.3782,2.3783,2.3773,2.3767,2.3767,2.3779,2.376,2.3754,2.3713,2.3685,2.3738,2.3735,2.3601,2.3598,2.3596,2.3555,0,0,0,0,0,0,2.3848,2.3839,2.3818,2.3808,2.38,2.3743,2.3781,2.3781,2.3768,2.3771,2.3757,2.3756,2.3761,2.3717,2.371,2.3681,2.3733,2.3604,2.36,2.3597,2.3558,2.3551,2.3544,0,0,0,0,0,2.3851,2.3807,2.3817,2.3809,2.3774,2.3741,2.3737,2.3744,2.3765,2.3744,2.3741,2.3757,2.3689,2.3712,2.3704,2.3675,2.3606,2.3601,2.3597,2.3562,2.3552,2.3544,0,0,0,0,0,0,2.3812,2.3805,2.3816,2.3768,2.3755,2.3746,2.372,2.3733,2.3713,2.3717,2.3726,2.3723,2.3679,2.3673,2.3699,2.3621,2.3651,2.3644,2.3627,2.3618,2.3611,2.3613,2.373,0,0,0,0,0,2.3798,2.3773,2.3768,2.3725,2.3719,2.372,2.3706,2.3713,2.37,2.3695,2.3688,2.3674,2.365,2.3633,2.3611,2.3558,2.3556,2.3534,2.3527,2.3521,2.3515,2.3488,2.3479,2.358,2.358,2.358,0,0,2.3768,2.3762,2.3745,2.3718,2.3709,2.3682,2.3716,2.3686,2.3666,2.369,2.365,2.3645,2.363,2.3583,2.3562,2.3577,2.3487,2.3515,2.351,2.3508,2.3483,2.3473,2.3464,2.3577,2.3578,2.3578,0,0,2.3701,2.3693,2.3658,2.3648,2.3635,2.3637,2.3628,2.3618,2.3616,2.3577,2.3595,2.3572,2.3529,2.3518,2.3507,2.3438,2.3452,2.343,2.3392,2.3365,2.3357,2.335,2.3326,2.3318,2.3424,2.3424,2.3424,0,2.3666,2.3627,2.3637,2.3607,2.3595,2.3617,2.3581,2.3571,2.355,2.3541,2.3558,2.3506,2.3498,2.3449,2.3432,2.3422,2.3413,2.3431,2.3358,2.3351,2.3344,2.3322,2.3313,2.3422,2.3422,2.3422,2.3422,0,2.3585,2.3558,2.3531,2.3512,2.3497,2.3463,2.3468,2.3452,2.346,2.346,2.3421,2.3411,2.3388,2.3377,2.3384,2.3329,2.3339,2.3357,2.3387,2.3332,2.3311,2.3302,2.3418,2.3419,2.342,2.342,0,0,2.3491,2.348,2.347,2.3462,2.345,2.3429,2.3397,2.3375,2.3361,2.3346,2.332,2.3285,2.3302,2.3289,2.3296,2.3272,2.3219,2.3293,2.3293,2.328,2.316,2.3147,2.3137,2.3229,2.3227,2.3226,2.3161,0,2.3424,2.337,2.3379,2.3326,2.3302,2.3324,2.3296,2.3285,2.3285,2.3264,2.3263,2.3238,2.3262,2.3255,2.3233,2.323,2.3195,2.3235,2.3204,2.3203,2.3208,2.3125,2.3111,2.305,2.3153,2.3152,2.315,0,2.3338,2.3322,2.3268,2.3261,2.3251,2.3226,2.3208,2.3188,2.3176,2.3178,2.3165,2.3176,2.3144,2.3175,2.3132,2.3159,2.3147,2.3144,2.3142,2.3139,2.3174,2.3121,2.3031,2.3022,2.3137,2.3138,2.3139,0,2.3276,2.3241,2.3205,2.3197,2.3188,2.317,2.3165,2.3156,2.3143,2.3127,2.3119,2.3098,2.3087,2.3071,2.3077,2.3099,2.3033,2.3064,2.3033,2.3033,2.3018,2.3019,2.2925,2.3009,2.301,2.301,2.301,0,2.3201,2.3167,2.3177,2.3154,2.3117,2.3128,2.3091,2.3088,2.308,2.3057,2.3074,2.3052,2.3061,2.3039,2.3044,2.3008,2.3002,2.3002,2.3004,2.3001,2.3001,2.2993,2.2998,2.3007,2.3008,2.3008,2.3009,0,2.3125,2.3131,2.3092,2.3087,2.3086,2.3058,2.3054,2.3033,2.3035,2.3006,2.2999,2.3001,2.2977,2.2982,2.2954,2.2957,2.2913,2.2919,2.2917,2.2919,2.2888,2.2891,2.2786,2.2774,2.2866,2.2865,2.2864,0,2.3077,2.3051,2.3045,2.3031,2.3026,2.3004,2.2991,2.3001,2.2987,2.2973,2.2954,2.2932,2.2915,2.2875,2.2874,2.2854,2.286,2.2825,2.2857,2.2855,2.286,2.2862,2.286,2.2818,2.2817,2.2816,2.2816,0,2.2991,2.2995,2.2977,2.296,2.2945,2.2931,2.2919,2.2907,2.2917,2.29,2.2877,2.2863,2.2837,2.2815,2.2796,2.2791,2.2805,2.2806,2.2798,2.2795,2.2795,2.2795,2.29,2.2808,2.2809,2.2809,2.281,2.281,2.2928,2.2907,2.2899,2.2879,2.2871,2.286,2.2841,2.2841,2.2822,2.2802,2.2809,2.2782,2.2773,2.275,2.2742,2.2721,2.2734,2.2722,2.2719,2.2716,2.2713,2.2798,2.2718,2.2718,2.2718,2.2718,2.2719,0,2.2843,2.284,2.2821,2.2805,2.2789,2.2805,2.2793,2.2778,2.2755,2.2746,2.2729,2.2703,2.2682,2.268,2.266,2.2644,2.265,2.2638,2.264,2.2638,2.2702,2.2712,2.2634,2.2634,2.2634,2.2634,2.2634,2.2634,2.2797,2.2763,2.2767,2.273,2.2726,2.2702,2.2694,2.2684,2.2677,2.2647,2.263,2.2629,2.2623,2.2603,2.2585,2.2585,2.2577,2.2563,2.2565,2.2625,2.2634,2.2642,2.265,2.2561,2.2561,2.2503,2.2503,2.2502]}]]